Waarnemingen

Advertentie
Mijn weer
Palermo/Punta Raisi, Italië (16405): temperatuur & dauwpunt: 12.12.2017 09:00:00 - 18.12.2017 09:00:00 (CET)Palermo/Punta Raisi, Italië (16405): windsnelheid: 12.12.2017 09:00:00 - 18.12.2017 09:00:00 (CET)Palermo/Punta Raisi, Italië (16405): windrichting: 12.12.2017 09:00:00 - 18.12.2017 09:00:00 (CET)Palermo/Punta Raisi, Italië (16405): luchtdruk: 12.12.2017 09:00:00 - 18.12.2017 09:00:00 (CET)Palermo/Punta Raisi, Italië (16405): zicht: 12.12.2017 09:00:00 - 18.12.2017 09:00:00 (CET)Palermo/Punta Raisi, Italië (16405): neerslag: 12.12.2017 09:00:00 - 18.12.2017 09:00:00 (CET)
Datum & Tijd tt [°C] td [°C] ff [km/u] ff [kn] dd ppp [hPa] vv [km] rr [mm]
18.12.2017 09:00:00 12,0 2,0 29 16 NW - 10 -
18.12.2017 08:00:00 12,0 3,0 24 13 NNW - 10 -
18.12.2017 07:00:00 12,4 3,2 28 15 NW 1021,0 10 -
18.12.2017 06:00:00 12,0 2,0 34 18 NW - 10 -
18.12.2017 05:00:00 12,0 5,0 24 13 NNW - 10 -
18.12.2017 04:00:00 12,7 6,1 31 17 N 1019,8 10 0,0
18.12.2017 03:00:00 13,0 7,0 24 13 NNW - 10 -
18.12.2017 02:00:00 10,0 5,0 11 6 - - 10 -
18.12.2017 01:00:00 10,0 5,0 13 7 ZZW 1019,3 10 -
18.12.2017 00:00:00 10,0 5,0 13 7 ZZW - 10 -
17.12.2017 23:00:00 11,0 4,0 11 6 - - 10 -
17.12.2017 22:00:00 9,4 3,8 8 4 - 1019,0 10 0,0
17.12.2017 21:00:00 11,0 6,0 37 20 NNW - 10 -
17.12.2017 20:00:00 13,0 6,0 28 15 W - 10 -
17.12.2017 19:00:00 12,5 6,2 31 17 NW 1017,8 10 -
17.12.2017 18:00:00 12,0 6,0 11 6 WNW - 10 -
17.12.2017 17:00:00 11,0 4,0 37 20 WNW - 10 -
17.12.2017 16:00:00 12,8 6,6 22 12 NW 1016,8 10 0,0
17.12.2017 15:00:00 13,0 5,0 18 10 WNW - 10 -
17.12.2017 14:00:00 13,0 7,0 22 12 WNW - 10 -
17.12.2017 13:00:00 13,2 5,4 21 11 WNW 1016,5 10 -
17.12.2017 12:00:00 13,0 6,0 28 15 W - 10 -
17.12.2017 11:00:00 13,0 5,0 26 14 W - 10 -
17.12.2017 10:00:00 12,0 5,2 15 8 WNW 1016,8 10 0,0
17.12.2017 09:00:00 12,0 5,0 13 7 W - 10 -
17.12.2017 08:00:00 13,0 6,0 26 14 WNW - 10 -
17.12.2017 07:00:00 12,2 4,9 21 11 W 1014,7 10 -
17.12.2017 06:00:00 13,0 4,0 31 17 W - 10 -
17.12.2017 05:00:00 13,0 5,0 34 18 WNW - 10 -
17.12.2017 04:00:00 13,2 5,0 37 20 W 1014,4 10 0,0
17.12.2017 03:00:00 13,0 6,0 41 22 W - 10 -
17.12.2017 02:00:00 13,0 5,0 35 19 W - 10 -
17.12.2017 01:00:00 13,4 4,8 37 20 W 1013,6 10 -
17.12.2017 00:00:00 14,0 4,0 35 19 W - 10 -
16.12.2017 23:00:00 14,0 6,0 35 19 W - 10 -
16.12.2017 22:00:00 11,7 5,9 15 8 ZW 1012,7 10 0,0
16.12.2017 21:00:00 10,0 6,0 15 8 Z - 10 -
16.12.2017 20:00:00 11,0 6,0 9 5 - - 10 -
16.12.2017 19:00:00 10,2 6,4 11 6 Z 1011,9 10 -
16.12.2017 18:00:00 13,0 5,0 9 5 WNW - 10 -
16.12.2017 17:00:00 13,0 7,0 18 10 WNW - 10 -
16.12.2017 16:00:00 13,3 7,6 31 17 W 1010,6 10 0,0
16.12.2017 15:00:00 14,0 5,0 24 13 WNW - 10 -
16.12.2017 14:00:00 14,0 7,0 31 17 WNW - 10 -
16.12.2017 13:00:00 14,4 5,8 29 16 NW 1009,7 10 -
16.12.2017 12:00:00 15,0 8,0 15 8 NW - 10 -
16.12.2017 11:00:00 15,0 8,0 15 8 WNW - 10 -
16.12.2017 10:00:00 14,7 8,4 18 10 WNW 1009,8 10 0,0
16.12.2017 09:00:00 15,0 8,0 16 9 NW - 10 -
16.12.2017 08:00:00 15,0 9,0 15 8 WNW - 10 -
16.12.2017 07:00:00 15,1 9,5 21 11 WNW 1008,5 10 -
16.12.2017 06:00:00 15,0 11,0 22 12 W - 10 -
16.12.2017 05:00:00 15,0 12,0 29 16 W - 10 -
16.12.2017 04:00:00 15,4 11,3 11 6 W 1008,3 10 0,0
16.12.2017 03:00:00 16,0 11,0 18 10 WZW - 10 -
16.12.2017 02:00:00 16,0 11,0 24 13 ZZW - 10 -
16.12.2017 01:00:00 16,2 9,9 28 15 ZZW 1007,8 10 -
16.12.2017 00:00:00 17,0 9,0 29 16 ZZW - 10 -
15.12.2017 23:00:00 17,0 8,0 35 19 Z - 10 -
15.12.2017 22:00:00 16,8 6,6 35 19 Z 1008,6 15 0,0
15.12.2017 21:00:00 16,0 8,0 35 19 ZZW - 10 -
15.12.2017 20:00:00 15,0 9,0 35 19 ZZW - 10 -
15.12.2017 19:00:00 15,4 8,6 35 19 ZZW 1008,0 15 -
15.12.2017 18:00:00 17,0 6,0 39 21 ZZW - 10 -
15.12.2017 17:00:00 17,0 5,0 37 20 Z - 10 -
15.12.2017 16:00:00 17,2 6,6 31 17 ZZW 1007,2 15 0,0
15.12.2017 15:00:00 18,0 8,0 42 23 ZZW - 10 -
15.12.2017 14:00:00 18,0 7,0 31 17 ZZW - 10 -
15.12.2017 13:00:00 18,1 6,6 35 19 Z 1009,9 10 -
15.12.2017 12:00:00 18,0 6,0 37 20 ZZW - 10 -
15.12.2017 11:00:00 17,0 7,0 37 20 ZZW - 10 -
15.12.2017 10:00:00 16,2 7,5 35 19 ZZW 1012,7 10 0,0
15.12.2017 09:00:00 15,0 6,0 31 17 ZZW - 10 -
15.12.2017 08:00:00 15,0 7,0 35 19 Z - 10 -
15.12.2017 07:00:00 15,4 2,6 29 16 Z 1013,4 10 -
15.12.2017 06:00:00 - - - - - - - -
15.12.2017 05:00:00 - - - - - - - -
15.12.2017 04:00:00 14,2 5,8 31 17 Z 1014,8 10 0,0
15.12.2017 03:00:00 14,0 8,0 34 18 ZZW - 10 -
15.12.2017 02:00:00 14,0 8,0 34 18 ZZW - 10 -
15.12.2017 01:00:00 13,9 7,9 34 18 ZZW 1017,1 10 -
15.12.2017 00:00:00 14,0 8,0 28 15 Z - 10 -
14.12.2017 23:00:00 14,0 7,0 29 16 ZZW - 10 -
14.12.2017 22:00:00 14,3 4,8 39 21 ZZW 1017,8 10 0,0
14.12.2017 21:00:00 14,0 7,0 31 17 ZZW - 10 -
14.12.2017 20:00:00 14,0 8,0 28 15 ZZW - 10 -
14.12.2017 19:00:00 13,7 7,9 26 14 ZZW 1018,7 10 -
14.12.2017 18:00:00 14,0 9,0 18 10 ZW - 10 -
14.12.2017 17:00:00 15,0 10,0 18 10 WZW - 10 -
14.12.2017 16:00:00 15,6 9,5 16 9 WZW 1019,7 10 0,0
14.12.2017 15:00:00 16,0 9,0 21 11 W - 10 -
14.12.2017 14:00:00 16,0 9,0 18 10 W - 10 -
14.12.2017 13:00:00 16,2 9,6 18 10 ZW 1020,5 10 -
14.12.2017 12:00:00 15,0 8,0 26 14 ZZW - 10 -
14.12.2017 11:00:00 15,0 7,0 24 13 ZZW - 10 -
14.12.2017 10:00:00 14,6 5,8 24 13 ZZW 1022,2 10 0,0
14.12.2017 09:00:00 13,0 6,0 21 11 Z - 10 -
14.12.2017 08:00:00 11,0 5,0 13 7 Z - 10 -
14.12.2017 07:00:00 11,2 5,6 15 8 Z 1022,3 10 -
14.12.2017 06:00:00 14,0 7,0 28 15 W - 10 -
14.12.2017 05:00:00 14,0 6,0 28 15 W - 10 -
14.12.2017 04:00:00 14,3 7,2 28 15 W 1022,7 - 0,0
14.12.2017 03:00:00 15,0 9,0 29 16 W - 10 -
14.12.2017 02:00:00 15,0 8,0 28 15 WNW - 10 -
14.12.2017 01:00:00 14,7 8,7 24 13 W 1022,6 10 -
14.12.2017 00:00:00 15,0 9,0 24 13 W - 10 -
13.12.2017 23:00:00 15,0 9,0 28 15 WNW - 10 -
13.12.2017 22:00:00 15,2 9,2 21 11 WNW 1023,5 10 0,0
13.12.2017 21:00:00 15,0 11,0 21 11 WNW - 10 -
13.12.2017 20:00:00 15,0 10,0 24 13 WNW - 10 -
13.12.2017 19:00:00 15,3 10,2 22 12 WNW 1023,2 10 -
13.12.2017 18:00:00 15,0 11,0 31 17 W - 10 -
13.12.2017 17:00:00 16,0 11,0 34 18 W - 10 -
13.12.2017 16:00:00 16,4 10,7 15 8 NW 1021,8 10 0,0
13.12.2017 15:00:00 16,0 10,0 16 9 WNW - 10 -
13.12.2017 14:00:00 16,0 11,0 26 14 W - 10 -
13.12.2017 13:00:00 16,4 12,5 28 15 W 1022,1 20 -
13.12.2017 12:00:00 17,0 12,0 22 12 W - 10 -
13.12.2017 11:00:00 17,0 12,0 15 8 WZW - 10 -
13.12.2017 10:00:00 17,2 11,2 22 12 Z 1022,4 10 0,0
13.12.2017 09:00:00 16,0 11,0 28 15 ZZW - 10 -
13.12.2017 08:00:00 17,0 9,0 37 20 ZZW - 10 -
13.12.2017 07:00:00 17,2 8,2 34 18 ZZW 1020,1 10 -
13.12.2017 06:00:00 17,0 7,0 26 14 Z - 10 -
13.12.2017 05:00:00 17,0 6,0 34 18 ZZW - 10 -
13.12.2017 04:00:00 17,5 5,6 29 16 ZZW 1019,1 10 0,0
13.12.2017 03:00:00 18,0 5,0 37 20 ZZW - 10 -
13.12.2017 02:00:00 19,0 3,0 39 21 Z - 10 -
13.12.2017 01:00:00 18,9 1,6 34 18 ZZW 1018,3 10 -
13.12.2017 00:00:00 19,0 0,0 46 25 Z - 10 -
12.12.2017 23:00:00 20,0 0,0 39 21 Z - 10 -
12.12.2017 22:00:00 19,1 -0,6 37 20 Z 1017,9 10 0,0
12.12.2017 21:00:00 19,0 1,0 39 21 Z - 10 -
12.12.2017 20:00:00 19,0 1,0 42 23 Z - 10 -
12.12.2017 19:00:00 18,5 2,7 39 21 Z 1017,1 10 -
12.12.2017 18:00:00 17,0 8,0 31 17 ZZW - 10 -
12.12.2017 17:00:00 18,0 7,0 35 19 ZZW - 10 -
12.12.2017 16:00:00 18,0 5,7 35 19 ZZW 1016,2 10 0,0
12.12.2017 15:00:00 19,0 7,0 34 18 ZZW - 10 -
12.12.2017 14:00:00 19,0 7,0 37 20 ZZW - 10 -
12.12.2017 13:00:00 19,5 7,5 39 21 ZZW 1016,1 10 -
12.12.2017 12:00:00 19,0 8,0 42 23 ZZW - 10 -
12.12.2017 11:00:00 19,0 8,0 31 17 ZZW - 10 -
12.12.2017 10:00:00 18,2 6,7 46 25 Z 1015,7 10 0,0
12.12.2017 09:00:00 17,0 7,0 46 25 ZZW - 10 -

tt = temperatuur
td = dauwpunt
ff = windsnelheid
dd = windrichting
ppp = luchtdruk
vv = zicht
rr = neerslag

Weerstations in de omgeving